Regional Weather Roundup
Issued by NWS

Home | Current Version | Previous Version | Text Only | Print | Product List | Glossary On
Versions: 1 2 3 4 5 6 7 8 9 10 11 12 13 14 15 16 17 18 19 20 21 22 23 24 25 26 27 28 29 30 31 32 33 34 35 36 37 38 39 40 41 42 43 44 45 46 47 48 49 50
000
ASUS43 KOAX 300010
RWRNE

WEATHER ROUNDUP FOR NEBRASKA
NATIONAL WEATHER SERVICE OMAHA NE
700 PM CDT SUN MAY 29 2016

NOTES: SATELLITE DATA IS BEING USED TO AUGMENT CLOUD COVER ABOVE
       12000 FEET.
       "FAIR" INDICATES FEW OR NO CLOUDS BELOW 12,000 FEET WITH NO
       SIGNIFICANT WEATHER AND/OR OBSTRUCTIONS TO VISIBILITY.

  * THESE STATIONS DO NOT REPORT WEATHER SUCH AS RAIN...SNOW OR FOG.

NEZ001>004-019>022-054>056-300100-
NEBRASKA PANHANDLE

CITY           SKY/WX    TMP DP  RH WIND       PRES   REMARKS
SCOTTSBLUFF    CLOUDY    74  41  30 SW12      30.01F
6HR MIN TEMP:  74; 6HR MAX TEMP:  80;

ALLIANCE       CLOUDY    75  46  35 SW9       29.98F
6HR MIN TEMP:  72; 6HR MAX TEMP:  79;

CHADRON        SUNNY     81  45  28 N7        29.96F
6HR MIN TEMP:  74; 6HR MAX TEMP:  83;

KIMBALL        TSTM      60  47  62 NW15      30.10R
SIDNEY         SUNNY     76  44  32 VRB5      30.02F
6HR MIN TEMP:  75; 6HR MAX TEMP:  81;

$$

NEZ057>060-069>072-079>082-300100-
SOUTHWEST NEBRASKA

CITY           SKY/WX    TMP DP  RH WIND       PRES   REMARKS
NORTH PLATTE   CLOUDY    78  57  48 E14       29.96F
6HR MIN TEMP:  77; 6HR MAX TEMP:  83;

IMPERIAL       CLOUDY    69  53  56 SE17G29   29.99R THUNDER
6HR MIN TEMP:  69; 6HR MAX TEMP:  83;

LEXINGTON      CLOUDY    73  58  60 SW16      30.00R
MCCOOK         CLOUDY    69  55  60 SE9G21    29.99R
6HR MIN TEMP:  69; 6HR MAX TEMP:  85;

OGALLALA       SUNNY     80  50  35 CALM      29.98S
$$

NEZ005>010-023>029-035>040-094-300100-
NORTH CENTRAL NEBRASKA

CITY           SKY/WX    TMP DP  RH WIND       PRES   REMARKS
VALENTINE      SUNNY     79  51  37 SE12      29.96F
6HR MIN TEMP:  72; 6HR MAX TEMP:  80;

AINSWORTH      SUNNY     77  53  42 SE9G16    29.98F
BROKEN BOW     SUNNY     80  56  43 SE7       29.98F
6HR MIN TEMP:  75; 6HR MAX TEMP:  80;

O`NEILL        SUNNY     78  54  42 E6        30.00F
ORD            SUNNY     80  55  42 SE9       29.97S
6HR MIN TEMP:  77; 6HR MAX TEMP:  82;

THEDFORD       MOSUNNY   82  53  37 SE13      29.98S
$$

NEZ041-046>049-061>064-073>077-083>087-300100-
SOUTH CENTRAL NEBRASKA

CITY           SKY/WX    TMP DP  RH WIND       PRES   REMARKS
GRAND ISLAND   CLOUDY    75  58  55 S16G26    29.99S
6HR MIN TEMP:  75; 6HR MAX TEMP:  83;

AURORA         CLOUDY    75  55  49 S9        29.99S
HASTINGS       CLOUDY    75  57  53 E12G20    30.00R
6HR MIN TEMP:  72; 6HR MAX TEMP:  84; 6HR PCP: TRACE;

HEBRON         CLOUDY    80  60  51 S15G23    30.01R
HOLDREGE       CLOUDY    72  55  55 CALM      30.00S
KEARNEY *      CLOUDY    77  55  47 S10       30.00S
YORK           CLOUDY    77  61  57 SE6       30.00R
$$

NEZ011>018-030>034-042>045-300100-
NORTHEAST NEBRASKA

CITY           SKY/WX    TMP DP  RH WIND       PRES   REMARKS
NORFOLK        SUNNY     79  56  45 E6        29.98F
6HR MIN TEMP:  76; 6HR MAX TEMP:  81;

ALBION         SUNNY     80  52  37 SE7       29.99S
BLAIR          SUNNY     83  56  39 CALM      29.98F
FREMONT        SUNNY     81  57  43 CALM      29.99S
TEKAMAH          N/A    N/A N/A N/A MISG      29.97F
WAYNE          SUNNY     80  57  44 CALM      30.00S
$$

NEZ050>053-065>068-078-088>093-300100-
SOUTHEAST NEBRASKA

CITY           SKY/WX    TMP DP  RH WIND       PRES   REMARKS
LINCOLN        CLOUDY    81  62  52 S5        29.99S
6HR MIN TEMP:  80; 6HR MAX TEMP:  87;

OMAHA EPPLEY   MOSUNNY   85  57  38 NE5       29.97F
6HR MIN TEMP:  78; 6HR MAX TEMP:  87;

BEATRICE       CLOUDY    80  59  48 S8        30.00S
FALLS CITY     CLOUDY    83  58  42 SW8       30.00R
6HR MIN TEMP:  82; 6HR MAX TEMP:  87;

NEBRASKA CITY  SUNNY     82  55  39 SW7       29.99S
PLATTSMOUTH    SUNNY     84  56  39 CALM      29.99S
$$

NEZ044-045-051>053-067-300100-
OMAHA AREA

CITY           SKY/WX    TMP DP  RH WIND       PRES   REMARKS
OMAHA EPPLEY   MOSUNNY   85  57  38 NE5       29.97F
6HR MIN TEMP:  78; 6HR MAX TEMP:  87;

BLAIR          SUNNY     83  56  39 CALM      29.98F
FREMONT        SUNNY     81  57  43 CALM      29.99S
MILLARD        SUNNY     84  57  39 CALM      29.98S
OFFUTT AFB     SUNNY     83  58  42 SW2       29.97F
PLATTSMOUTH    SUNNY     84  56  39 CALM      29.99S
WAHOO          FAIR      84  52  32 CALM      29.98S
$$




USA.gov is the U.S. government's official web portal to all federal, state and local government web resources and services.